Sparta, IL

9:45 AM CDT on October 20, 2019 (GMT -0500)
Sparta Community-Hunter

Weather History for KSAR - August, 2019

Change the Weather History Date:

Thursday, August 29, 2019

  Actual Average (WUND) Record (WUND)
Temperature  
Mean Temperature 72 °F -  
Max Temperature 85 °F - - (-1)
Min Temperature 60 °F - - (-1)
Cooling Degree Days 8    
Growing Degree Days 22 (Base 50)    
Moisture  
Dew Point 62 °F    
Average Humidity 66    
Maximum Humidity 90    
Minimum Humidity 40    
Precipitation  
Precipitation 0.00 in - - ()
Sea Level Pressure  
Sea Level Pressure 30.06 in    
Wind  
Wind Speed 6 mph (SSW)    
Max Wind Speed 14 mph    
Max Gust Speed 20 mph    
Visibility 10 miles    
Events      
Averages and records for this station are not official NWS values.
T = Trace of Precipitation, MM = Missing Value Source: NWS Daily Summary

Daily Weather History Graph

Daily Weather History Graph

Search for Another Location

Airport or City:

Astronomy

Aug. 29, 2019 Rise Set
Actual Time 6:25 AM CDT 7:33 PM CDT
Civil Twilight 5:58 AM CDT 8:00 PM CDT
Nautical Twilight 5:26 AM CDT 8:32 PM CDT
Astronomical Twilight 4:52 AM CDT 9:06 PM CDT
Moon 5:12 AM CDT (8/29) 7:28 PM CDT (8/29)
Length of Visible Light 14h 01m
Length of Day
13h 07m
Waning Crescent, 1% of the Moon is Illuminated
Aug 29
Waning Crescent
Aug 30
New
Sep 5
First Quarter
Sep 13
Full
Sep 21
Last Quarter

Hourly Weather History & Observations

Time (CDT) Temp. Heat Index Dew Point Humidity Pressure Visibility Wind Dir Wind Speed Gust Speed Precip Events Conditions
12:15 AM 61.7 °F - 58.3 °F 89% 30.07 in 10.0 mi Calm Calm - N/A   Clear
2:15 AM 66.0 °F - 57.6 °F 74% 30.07 in 10.0 mi SSW 6.9 mph - N/A   Clear
2:35 AM 65.8 °F - 57.6 °F 75% 30.07 in 10.0 mi SSW 5.8 mph - N/A   Clear
2:55 AM 65.7 °F - 57.6 °F 75% 30.07 in 10.0 mi SSW 3.5 mph - N/A   Clear
3:15 AM 64.9 °F - 57.2 °F 76% 30.07 in 10.0 mi SW 3.5 mph - N/A   Clear
3:35 AM 64.6 °F - 57.2 °F 77% 30.07 in 10.0 mi SW 3.5 mph - N/A   Clear
3:55 AM 64.4 °F - 56.5 °F 75% 30.07 in 10.0 mi SSW 3.5 mph - N/A   Clear
4:15 AM 64.4 °F - 56.3 °F 75% 30.07 in 10.0 mi SSW 3.5 mph - N/A   Clear
4:35 AM 61.0 °F - 57.2 °F 87% 30.08 in 10.0 mi Calm Calm - N/A   Clear
4:55 AM 60.3 °F - 57.2 °F 90% 30.08 in 10.0 mi Calm Calm - N/A   Clear
5:15 AM 60.1 °F - 57.2 °F 90% 30.08 in 10.0 mi Calm Calm - N/A   Clear
5:35 AM 63.9 °F - 56.3 °F 76% 30.09 in 10.0 mi SSW 3.5 mph - N/A   Clear
5:55 AM 63.9 °F - 56.3 °F 76% 30.09 in 10.0 mi SSW 3.5 mph - N/A   Clear
6:15 AM 63.5 °F - 56.3 °F 77% 30.09 in 10.0 mi SSW 3.5 mph - N/A   Clear
6:35 AM 63.0 °F - 56.7 °F 80% 30.10 in 10.0 mi Calm Calm - N/A   Clear
6:55 AM 62.2 °F - 57.2 °F 84% 30.10 in 10.0 mi Calm Calm - N/A   Clear
7:15 AM 63.7 °F - 57.7 °F 81% 30.11 in 10.0 mi Calm Calm - N/A   Clear
7:35 AM 65.3 °F - 58.5 °F 78% 30.11 in 10.0 mi Calm Calm - N/A   Clear
7:55 AM 66.6 °F - 58.8 °F 76% 30.11 in 10.0 mi SW 3.5 mph - N/A   Clear
8:15 AM 67.5 °F - 59.9 °F 77% 30.11 in 10.0 mi WSW 4.6 mph - N/A   Clear
8:35 AM 68.9 °F - 61.0 °F 76% 30.11 in 10.0 mi SW 4.6 mph - N/A   Clear
9:15 AM 72.5 °F - 63.1 °F 72% 30.11 in 10.0 mi SW 6.9 mph - N/A   Scattered Clouds
9:35 AM 74.1 °F - 64.0 °F 71% 30.11 in 10.0 mi SW 8.1 mph - N/A   Scattered Clouds
9:55 AM 75.9 °F - 63.3 °F 65% 30.11 in 10.0 mi SW 8.1 mph - N/A   Clear
10:15 AM 77.0 °F - 63.5 °F 63% 30.11 in 10.0 mi SW 8.1 mph - N/A   Clear
10:35 AM 78.3 °F - 64.2 °F 62% 30.11 in 10.0 mi SSW 8.1 mph - N/A   Clear
10:55 AM 78.8 °F - 64.0 °F 60% 30.11 in 10.0 mi SW 10.4 mph - N/A   Clear
11:15 AM 80.4 °F 82.2 °F 64.9 °F 59% 30.10 in 10.0 mi SW 9.2 mph - N/A   Clear
11:35 AM 80.8 °F 82.4 °F 64.4 °F 57% 30.09 in 10.0 mi SSW 9.2 mph 16.1 mph N/A   Clear
11:55 AM 81.7 °F 83.5 °F 64.9 °F 57% 30.08 in 10.0 mi SSW 8.1 mph - N/A   Clear
12:15 PM 82.4 °F 84.1 °F 64.8 °F 55% 30.08 in 10.0 mi SSW 10.4 mph 16.1 mph N/A   Clear
12:35 PM 83.1 °F 83.9 °F 62.4 °F 49% 30.07 in 10.0 mi SW 9.2 mph - N/A   Clear
12:55 PM 84.0 °F 84.5 °F 62.1 °F 47% 30.08 in 10.0 mi SW 9.2 mph - N/A   Clear
1:15 PM 85.1 °F 86.1 °F 63.1 °F 48% 30.08 in 10.0 mi SSW 11.5 mph - N/A   Clear
1:35 PM 84.7 °F 84.8 °F 60.4 °F 44% 30.08 in 10.0 mi SW 11.5 mph 17.3 mph N/A   Clear
1:55 PM 85.5 °F 85.7 °F 61.2 °F 44% 30.07 in 10.0 mi SW 11.5 mph 17.3 mph N/A   Clear
2:15 PM 84.6 °F 83.9 °F 57.6 °F 40% 30.06 in 10.0 mi SW 10.4 mph 19.6 mph N/A   Clear
2:35 PM 85.1 °F 84.8 °F 59.9 °F 42% 30.06 in 10.0 mi SW 12.7 mph 17.3 mph N/A   Clear
2:55 PM 85.3 °F 85.0 °F 59.7 °F 42% 30.04 in 10.0 mi SW 11.5 mph - N/A   Clear
3:15 PM 84.9 °F 85.0 °F 60.4 °F 44% 30.03 in 10.0 mi South 13.8 mph - N/A   Clear
3:35 PM 85.1 °F 85.2 °F 61.0 °F 44% 30.03 in 10.0 mi South 10.4 mph - N/A   Clear
3:55 PM 84.4 °F 85.4 °F 63.1 °F 49% 30.03 in 10.0 mi SSW 9.2 mph - N/A   Clear
4:15 PM 84.0 °F 84.7 °F 62.2 °F 48% 30.02 in 10.0 mi South 13.8 mph - N/A   Clear
4:35 PM 83.5 °F 84.5 °F 63.1 °F 50% 30.02 in 10.0 mi South 10.4 mph - N/A   Clear
4:55 PM 82.4 °F 83.5 °F 63.3 °F 52% 30.01 in 10.0 mi South 11.5 mph - N/A   Clear
5:15 PM 81.5 °F 82.8 °F 63.5 °F 54% 29.99 in 10.0 mi South 12.7 mph 18.4 mph N/A   Clear
5:35 PM 81.0 °F 82.7 °F 64.9 °F 58% 29.99 in 10.0 mi South 8.1 mph 18.4 mph N/A   Clear
5:55 PM 81.5 °F 83.4 °F 65.5 °F 58% 29.99 in 10.0 mi South 10.4 mph - N/A   Clear
6:15 PM 81.7 °F 83.6 °F 65.7 °F 58% 30.01 in 10.0 mi SSW 8.1 mph - N/A   Clear
6:35 PM 80.8 °F 82.8 °F 65.8 °F 60% 30.01 in 10.0 mi SSW 10.4 mph - N/A   Clear
6:55 PM 79.7 °F - 66.2 °F 63% 29.99 in 10.0 mi South 11.5 mph - N/A   Clear
7:35 PM 77.7 °F - 65.7 °F 66% 30.00 in 10.0 mi South 6.9 mph - N/A   Clear
7:55 PM 77.0 °F - 65.5 °F 67% 30.01 in 10.0 mi SSW 6.9 mph - N/A   Clear
8:15 PM 76.1 °F - 65.3 °F 69% 30.02 in 10.0 mi South 8.1 mph - N/A   Clear
8:35 PM 75.6 °F - 65.3 °F 70% 30.01 in 10.0 mi South 8.1 mph - N/A   Clear
8:55 PM 75.2 °F - 65.1 °F 71% 30.03 in 10.0 mi SSW 8.1 mph - N/A   Clear
9:15 PM 75.0 °F - 64.8 °F 70% 30.03 in 10.0 mi South 6.9 mph - N/A   Clear
9:35 PM 74.3 °F - 64.8 °F 72% 30.04 in 10.0 mi South 8.1 mph - N/A   Clear
9:55 PM 73.9 °F - 64.6 °F 72% 30.03 in 10.0 mi South 8.1 mph - N/A   Clear
10:15 PM 73.4 °F - 64.4 °F 73% 30.02 in 10.0 mi South 9.2 mph - N/A   Clear
10:35 PM 73.2 °F - 64.2 °F 73% 30.03 in 10.0 mi SSW 8.1 mph - N/A   Clear
10:55 PM 72.9 °F - 64.2 °F 74% 30.04 in 10.0 mi SSW 9.2 mph - N/A   Clear
11:35 PM 72.3 °F - 64.2 °F 76% 30.04 in 10.0 mi South 8.1 mph - N/A   Clear
11:55 PM 72.1 °F - 64.0 °F 76% 30.04 in 10.0 mi SSW 8.1 mph - N/A   Clear